Flag for Brazil Weather past 2 weeks in Recife, Pernambuco, Brazil

Now
82 °F

Scattered clouds.


Feels Like: 86 °F
Forecast: 74 / 82 °F
Wind: 10 mph from Southeast

Location: Recife Aeroporto

Current Time: Sep 3, 2015 at 2:27:28 PM

Latest Report: Sep 3, 2015 at 2:00 PM


Visibility: N/A

Pressure: 29.95 "Hg

Humidity: 66%

Dew point: 70 °F

Location of RecifeLocation

Historic Weather in Recife — Graph

°F

Recife temperature yesterday

Maximum temperature yesterday: 82 °F (at 1:00 PM)
Minimum temperature yesterday: 70 °F (at 5:00 AM)
Average temperature yesterday: 77 °F

Past Weeks' High & Low Weather Summary

 TemperatureHumidityPressure
High84 °F (Aug 25, 11:00 AM)94% (Aug 20, 4:00 AM)30.09 "Hg (Aug 20, 4:00 AM)
Low70 °F (Aug 24, 4:00 AM)51% (Aug 27, 1:00 PM)29.89 "Hg (Aug 22, 3:00 PM)
Average78 °F76%30.00 "Hg
* Reported Aug 19 1:00 PM — Sep 3 1:00 PM, Recife, Weather by CustomWeather, © 2015

Note: Actual official high and low records may vary slightly from our data, if they occured in-between our weather recording intervals... More about our weather records

Advertising

Recife weather history for previous 24 hours

 ConditionsComfort  
Time TempWeatherWind HumidityBarometerVisibility
1:00 PM
Thu, Sep 3
82 °FScattered clouds.9 mph66%29.98 "HgN/A
12:00 PM82 °FScattered clouds.7 mph70%30.01 "HgN/A
11:00 AM82 °FScattered clouds.8 mph66%30.01 "HgN/A
10:00 AM82 °FScattered clouds.8 mph70%30.04 "HgN/A
9:00 AM82 °FScattered clouds.6 mph70%30.04 "HgN/A
8:00 AM79 °FPartly sunny.2 mph79%30.01 "HgN/A
7:00 AM77 °FScattered clouds.3 mph79%30.01 "HgN/A
6:00 AM75 °FPartly sunny.2 mph83%29.98 "HgN/A
5:00 AM75 °FPassing clouds.3 mph83%29.98 "HgN/A
4:00 AM77 °FPartly cloudy.3 mph79%29.98 "HgN/A
3:00 AM79 °FPassing clouds.6 mph74%29.98 "HgN/A
2:00 AM77 °FPassing clouds.7 mph79%29.98 "HgN/A
1:00 AM77 °FPassing clouds.5 mph79%30.01 "HgN/A
12:00 AM79 °FPassing clouds.8 mph74%30.01 "HgN/A
11:00 PM
Wed, Sep 2
77 °FPassing clouds.7 mph79%30.04 "HgN/A
10:00 PM79 °FPassing clouds.5 mph70%30.04 "HgN/A
9:00 PM79 °FPassing clouds.9 mph70%30.01 "HgN/A
8:00 PM79 °FPassing clouds.8 mph74%30.01 "HgN/A
7:00 PM79 °FPassing clouds.8 mph74%29.98 "HgN/A
6:00 PM79 °FPassing clouds.8 mph74%29.98 "HgN/A
5:00 PM79 °FPassing clouds.9 mph70%29.98 "HgN/A
4:00 PM81 °FPassing clouds.8 mph66%29.95 "HgN/A
3:00 PM81 °FPassing clouds.9 mph66%29.95 "HgN/A
2:00 PM81 °FPassing clouds.9 mph66%29.95 "HgN/A
Weather by CustomWeather, © 2015

See weather overviewHow to use our weather pages